Change the Weather History Date:

Wednesday, April 30, 2014

  Actual Average (KDAY) Record (KDAY)
Temperature  
Mean Temperature 56 °F 57 °F  
Max Temperature 66 °F 67 °F 90 °F (1899)
Min Temperature 46 °F 46 °F 33 °F (1963)
Degree Days  
Heating Degree Days 9 9  
Month to date heating degree days 412  
Since 1 July heating degree days 5451  
Cooling Degree Days 0 1  
Month to date cooling degree days 10  
Year to date cooling degree days 10  
Growing Degree Days 6 (Base 50)    
Moisture  
Dew Point 49 °F    
Average Humidity 81    
Maximum Humidity 100    
Minimum Humidity 49    
Precipitation  
Precipitation 0.00 in 0.14 in 1.51 in (1983)
Month to date precipitation 4.09  
Year to date precipitation 12.38  
Snow  
Snow 0.00 in 0.00 in 0.00 in ()
Month to date snowfall 0.6  
Since 1 July snowfall 23.3  
Snow Depth -    
Sea Level Pressure  
Sea Level Pressure 29.79 in    
Wind  
Wind Speed 11 mph (SSW)    
Max Wind Speed 20 mph    
Max Gust Speed 26 mph    
Visibility 10 miles    
Events Rain    
T = Trace of Precipitation, MM = Missing Value Source: NWS Daily Summary

Daily Weather History Graph

Daily Weather History Graph

Search for Another Location

Airport or City:

Trip Planner

Search our weather history database for the weather conditions in past years. The results will help you decide how hot, cold, wet, or windy it might be!

Date:

Astronomy

Apr. 30, 2014 Rise Set
Actual Time 6:39 AM EDT 8:32 PM EDT
Civil Twilight 6:09 AM EDT 9:01 PM EDT
Nautical Twilight 5:34 AM EDT 9:37 PM EDT
Astronomical Twilight 4:55 AM EDT 10:16 PM EDT
Moon 7:39 AM EDT (4/30) 10:10 PM EDT (4/30)
Length of Visible Light 14h 51m
Length of Day
13h 53m
New Moon, 2% of the Moon is Illuminated
Apr 30
New Moon
May 6
First Quarter
May 14
Full
May 21
Last Quarter
May 28
New

Hourly Weather History & Observations

Time (EDT) Temp. Windchill Dew Point Humidity Pressure Visibility Wind Dir Wind Speed Gust Speed Precip Events Conditions
12:15 AM 53.6 °F - 51.8 °F 94% 29.77 in 10.0 mi SSE 19.6 mph 26.5 mph N/A Rain Light Rain
12:35 AM 53.6 °F - 50.0 °F 88% 29.77 in 10.0 mi South 12.7 mph - N/A   Unknown
12:55 AM 51.8 °F - 50.0 °F 94% 29.77 in 10.0 mi South 10.4 mph - N/A   Unknown
1:15 AM 51.8 °F - 50.0 °F 94% 29.78 in 10.0 mi South 11.5 mph - N/A   Unknown
1:35 AM 51.8 °F - 50.0 °F 94% 29.79 in 10.0 mi South 5.8 mph - N/A   Unknown
1:55 AM 51.8 °F - 50.0 °F 94% 29.79 in 10.0 mi South 10.4 mph - N/A   Unknown
2:15 AM 51.8 °F - 50.0 °F 94% 29.79 in 10.0 mi South 8.1 mph - N/A   Unknown
2:35 AM 51.8 °F - 50.0 °F 94% 29.79 in 10.0 mi South 8.1 mph - N/A   Unknown
2:55 AM 51.8 °F - 50.0 °F 94% 29.78 in 10.0 mi South 8.1 mph - N/A   Unknown
3:15 AM 51.8 °F - 50.0 °F 94% 29.77 in 10.0 mi South 6.9 mph - N/A   Unknown
3:55 AM 50.0 °F - 50.0 °F 100% 29.78 in 10.0 mi SSE 6.9 mph - N/A   Unknown
4:15 AM 50.0 °F - 50.0 °F 100% 29.78 in 10.0 mi SSE 6.9 mph - N/A   Unknown
4:35 AM 51.8 °F - 50.0 °F 94% 29.80 in 10.0 mi SSE 5.8 mph - N/A   Unknown
4:55 AM 51.8 °F - 50.0 °F 94% 29.78 in 10.0 mi SSE 6.9 mph - N/A   Unknown
5:15 AM 51.8 °F - 50.0 °F 94% 29.81 in 10.0 mi SSE 8.1 mph - N/A   Unknown
5:35 AM 51.8 °F - 51.8 °F 100% 29.80 in 10.0 mi SSE 10.4 mph - N/A   Unknown
5:55 AM 51.8 °F - 51.8 °F 100% 29.80 in 10.0 mi SSE 9.2 mph - N/A   Unknown
6:15 AM 51.8 °F - 51.8 °F 100% 29.80 in 10.0 mi SSE 9.2 mph - N/A   Unknown
6:35 AM 51.8 °F - 51.8 °F 100% 29.79 in 10.0 mi SSE 8.1 mph - N/A   Unknown
6:55 AM 51.8 °F - 51.8 °F 100% 29.79 in 10.0 mi SSE 9.2 mph - N/A   Unknown
7:15 AM 51.8 °F - 51.8 °F 100% 29.81 in 10.0 mi SSE 9.2 mph - N/A   Unknown
7:35 AM 51.8 °F - 51.8 °F 100% 29.81 in 10.0 mi SSE 9.2 mph - N/A   Unknown
7:55 AM 53.6 °F - 51.8 °F 94% 29.80 in 10.0 mi SSE 8.1 mph - N/A   Unknown
8:15 AM 53.6 °F - 51.8 °F 94% 29.81 in 10.0 mi SSE 9.2 mph - N/A   Unknown
8:35 AM 53.6 °F - 51.8 °F 94% 29.81 in 10.0 mi South 6.9 mph - N/A   Unknown
8:55 AM 53.6 °F - 51.8 °F 94% 29.79 in 10.0 mi South 3.5 mph - N/A   Unknown
9:15 AM 53.6 °F - 53.6 °F 100% 29.81 in 10.0 mi South 6.9 mph - N/A   Unknown
9:35 AM 53.6 °F - 53.6 °F 100% 29.81 in 10.0 mi South 9.2 mph - N/A   Unknown
9:55 AM 53.6 °F - 53.6 °F 100% 29.79 in 10.0 mi SSE 8.1 mph - N/A   Unknown
10:15 AM 55.4 °F - 53.6 °F 94% 29.80 in 10.0 mi South 8.1 mph - N/A   Unknown
10:35 AM 55.4 °F - 53.6 °F 94% 29.79 in 10.0 mi South 10.4 mph - N/A   Unknown
10:55 AM 57.2 °F - 53.6 °F 88% 29.79 in 10.0 mi South 6.9 mph - N/A   Unknown
11:15 AM 59.0 °F - 53.6 °F 82% 29.79 in 10.0 mi SSW 10.4 mph - N/A   Unknown
11:35 AM 59.0 °F - 53.6 °F 82% 29.78 in 10.0 mi SSW 9.2 mph - N/A   Unknown
11:55 AM 59.0 °F - 53.6 °F 82% 29.78 in 10.0 mi SSW 8.1 mph - N/A   Unknown
12:15 PM 60.8 °F - 53.6 °F 77% 29.77 in 10.0 mi SSW 9.2 mph - N/A   Unknown
12:35 PM 60.8 °F - 53.6 °F 77% 29.77 in 10.0 mi South 6.9 mph - N/A   Unknown
12:55 PM 62.6 °F - 53.6 °F 72% 29.78 in 10.0 mi South 8.1 mph - N/A   Unknown
1:15 PM 62.6 °F - 51.8 °F 68% 29.77 in 10.0 mi South 8.1 mph 16.1 mph N/A   Unknown
1:35 PM 64.4 °F - 51.8 °F 64% 29.75 in 10.0 mi South 10.4 mph - N/A   Unknown
1:55 PM 64.4 °F - 51.8 °F 64% 29.75 in 10.0 mi SW 8.1 mph - N/A   Unknown
2:15 PM 64.4 °F - 50.0 °F 59% 29.75 in 10.0 mi SSW 9.2 mph 18.4 mph N/A   Unknown
2:35 PM 64.4 °F - 50.0 °F 59% 29.74 in 10.0 mi SW 6.9 mph - N/A   Unknown
2:55 PM 64.4 °F - 50.0 °F 59% 29.75 in 10.0 mi WSW 9.2 mph 16.1 mph N/A   Unknown
3:15 PM 66.2 °F - 48.2 °F 52% 29.75 in 10.0 mi SSW 12.7 mph 20.7 mph N/A   Unknown
3:35 PM 66.2 °F - 46.4 °F 49% 29.75 in 10.0 mi SW 10.4 mph 26.5 mph N/A   Unknown
3:55 PM 64.4 °F - 48.2 °F 56% 29.75 in 10.0 mi SW 13.8 mph 19.6 mph N/A   Unknown
4:15 PM 64.4 °F - 46.4 °F 52% 29.75 in 10.0 mi SW 11.5 mph 20.7 mph N/A   Unknown
4:35 PM 66.2 °F - 46.4 °F 49% 29.75 in 10.0 mi WSW 13.8 mph 20.7 mph N/A   Unknown
4:55 PM 66.2 °F - 46.4 °F 49% 29.75 in 10.0 mi WSW 16.1 mph 23.0 mph N/A   Unknown
5:15 PM 66.2 °F - 46.4 °F 49% 29.75 in 10.0 mi WSW 17.3 mph 20.7 mph N/A   Unknown
5:35 PM 64.4 °F - 44.6 °F 49% 29.75 in 10.0 mi SW 11.5 mph 23.0 mph N/A   Unknown
5:55 PM 62.6 °F - 46.4 °F 55% 29.76 in 10.0 mi WSW 12.7 mph 19.6 mph N/A   Unknown
6:15 PM 62.6 °F - 46.4 °F 55% 29.76 in 10.0 mi West 15.0 mph 20.7 mph N/A   Unknown
6:35 PM 60.8 °F - 46.4 °F 59% 29.76 in 10.0 mi WNW 16.1 mph 19.6 mph N/A   Unknown
6:55 PM 60.8 °F - 46.4 °F 59% 29.76 in 10.0 mi West 11.5 mph - N/A   Unknown
7:15 PM 59.0 °F - 46.4 °F 63% 29.77 in 10.0 mi West 11.5 mph 20.7 mph N/A   Unknown
7:35 PM 59.0 °F - 46.4 °F 63% 29.78 in 10.0 mi West 11.5 mph - N/A   Unknown
7:55 PM 57.2 °F - 46.4 °F 67% 29.79 in 10.0 mi West 10.4 mph 16.1 mph N/A   Unknown
8:15 PM 55.4 °F - 46.4 °F 72% 29.81 in 10.0 mi WNW 16.1 mph 21.9 mph N/A   Unknown
8:35 PM 53.6 °F - 46.4 °F 77% 29.82 in 10.0 mi West 12.7 mph - N/A   Unknown
8:55 PM 53.6 °F - 46.4 °F 77% 29.83 in 10.0 mi West 13.8 mph 17.3 mph N/A   Unknown
9:15 PM 51.8 °F - 46.4 °F 82% 29.84 in 10.0 mi West 18.4 mph 21.9 mph N/A   Unknown
9:35 PM 50.0 °F - 46.4 °F 87% 29.85 in 10.0 mi West 13.8 mph 21.9 mph N/A   Unknown
9:55 PM 50.0 °F - 44.6 °F 82% 29.87 in 10.0 mi WNW 13.8 mph 20.7 mph N/A   Unknown
10:15 PM 50.0 °F - 44.6 °F 82% 29.87 in 10.0 mi WNW 13.8 mph - N/A   Unknown
10:55 PM 48.2 °F - 44.6 °F 87% 29.87 in 10.0 mi West 12.7 mph - N/A   Unknown
11:15 PM 46.4 °F 40.4 °F 42.8 °F 87% 29.87 in 10.0 mi West 13.8 mph 18.4 mph N/A   Unknown
11:35 PM 46.4 °F 41.1 °F 42.8 °F 87% 29.88 in 10.0 mi West 11.5 mph - N/A   Unknown
11:55 PM 46.4 °F 40.7 °F 42.8 °F 87% 29.87 in 10.0 mi West 12.7 mph - N/A   Unknown